Zabol, Iran

3:36 AM +0430 on July 27, 2017 (GMT +0430)
Zabol

Weather History for OIZB - February, 2014

Change the Weather History Date:

Tuesday, February 4, 2014

  Actual Average Record
Temperature  
Mean Temperature 24 °F -  
Max Temperature 26 °F - - ()
Min Temperature 21 °F - - ()
Degree Days  
Heating Degree Days 42    
Moisture  
Dew Point 18 °F    
Average Humidity 79    
Maximum Humidity 100    
Minimum Humidity 14    
Precipitation  
Precipitation 0.12 in - - ()
Sea Level Pressure  
Sea Level Pressure 30.28 in    
Wind  
Wind Speed 12 mph ()    
Max Wind Speed 18 mph    
Max Gust Speed -    
Visibility 4.0 miles    
Events Snow    
T = Trace of Precipitation, MM = Missing Value Source: Averaged Metar Reports

Daily Weather History Graph

Daily Weather History Graph

Search for Another Location

Airport or City:

Trip Planner

Search our weather history database for the weather conditions in past years. The results will help you decide how hot, cold, wet, or windy it might be!

Date:

Astronomy

Feb. 04, 2014 Rise Set
Actual Time 6:14 AM +0330 5:01 PM +0330
Civil Twilight 5:48 AM +0330 5:26 PM +0330
Nautical Twilight 5:20 AM +0330 5:55 PM +0330
Astronomical Twilight 4:51 AM +0330 6:24 PM +0330
Moon 8:59 AM +0330 (2/4) 10:04 PM +0330 (2/4)
Length of Visible Light 11h 37m
Length of Day
10h 47m
Waxing Crescent, 25% of the Moon is Illuminated
Feb 4
Waxing Crescent
Feb 6
First Quarter
Feb 15
Full
Feb 22
Last Quarter
Mar 1
New

Hourly Weather History & Observations

Time (+0330) Temp. Windchill Dew Point Humidity Pressure Visibility Wind Dir Wind Speed Gust Speed Precip Events Conditions
12:30 AM 29 °F - -1 °F 14% 30.41 in 6 mi NNW 11.2 mph - -   Scattered Clouds
12:30 AM 28.4 °F 18.5 °F -0.4 °F 29% 30.30 in 6.2 mi NNW 11.5 mph - N/A   Mostly Cloudy
3:30 AM 23 °F - 19 °F 77% 30.38 in 6 mi NNW 15.7 mph - - Snow Light Snow
3:30 AM 23.0 °F 9.6 °F 19.4 °F 86% 30.27 in 6.2 mi NNW 16.1 mph - N/A   Mostly Cloudy
5:30 AM 21.2 °F 9.5 °F 19.4 °F 93% 30.24 in 4.3 mi NNW 11.5 mph - N/A Snow Light Snow
6:30 AM 21 °F - 19 °F 87% 30.40 in 3 mi NNW 13.4 mph - - Snow Light Snow
6:30 AM 21.2 °F 8.3 °F 19.4 °F 93% 30.27 in 3.1 mi NNW 13.8 mph - N/A Snow Light Snow
7:30 AM 21.2 °F 8.3 °F 19.4 °F 93% 30.27 in 2.2 mi NNW 13.8 mph - N/A Snow Light Snow
8:30 AM 21.2 °F 8.3 °F 17.6 °F 86% 30.27 in 1.9 mi NW 13.8 mph - N/A Snow Light Snow
9:30 AM 21 °F - 21 °F 98% 30.41 in 0 mi NNW 11.2 mph - - Snow Heavy Snow
9:30 AM 21.2 °F 9.5 °F 21.2 °F 100% 30.30 in 0.1 mi NNW 11.5 mph - N/A Snow Heavy Snow
10:30 AM 21.2 °F 7.3 °F 19.4 °F 93% 30.27 in 0.0 mi NNW 16.1 mph - N/A Snow Heavy Snow
11:30 AM 23.0 °F 8.7 °F 19.4 °F 86% 30.24 in 1.6 mi NNW 18.4 mph - N/A Snow Blowing Snow
12:30 PM 22 °F - 19 °F 82% 30.34 in 1 mi NNW 17.9 mph - - Snow Blowing Snow
12:30 PM 23.0 °F 8.7 °F 19.4 °F 86% 30.21 in 0.6 mi NNW 18.4 mph - N/A Snow Blowing Snow
1:30 PM 23.0 °F 9.6 °F 19.4 °F 86% 30.21 in 4.3 mi NNW 16.1 mph - N/A   Overcast
2:30 PM 26.6 °F 15.2 °F 19.4 °F 74% 30.18 in 6.2 mi NNW 13.8 mph - N/A   Overcast
3:30 PM 26 °F - 21 °F 72% 30.32 in 6 mi NW 13.4 mph - -   Partly Cloudy
3:30 PM 26.6 °F 15.2 °F 21.2 °F 80% 30.18 in 6.2 mi NW 13.8 mph - N/A   Overcast
4:30 PM 26.6 °F 15.2 °F 19.4 °F 74% 30.21 in 6.2 mi NNW 13.8 mph - N/A   Mostly Cloudy
5:30 PM 24.8 °F 12.9 °F 19.4 °F 80% 30.21 in 6.2 mi NW 13.8 mph - N/A   Mostly Cloudy
6:30 PM 24 °F - 19 °F 74% 30.36 in 6 mi NNW 11.2 mph - -   Scattered Clouds
6:30 PM 24.8 °F 14.0 °F 19.4 °F 80% 30.21 in 6.2 mi NNW 11.5 mph - N/A   Mostly Cloudy
7:30 PM 21.2 °F 14.9 °F 15.8 °F 80% 30.24 in - NW 4.6 mph - N/A   Clear
8:30 PM 21.2 °F 12.6 °F 15.8 °F 80% 30.24 in - NW 6.9 mph - N/A   Clear
9:30 PM 23 °F - 17 °F 68% 30.37 in 6 mi NNW 11.2 mph - -   Partly Cloudy
9:30 PM 23.0 °F 11.7 °F 17.6 °F 80% 30.24 in - NNW 11.5 mph - N/A   Clear